Location: Acheville
(50.3840°N, 2.8827°E)
Time: 15:17:16
(UTC+00:00)

SWARM A - Pass Details

Date: 24 October 2021
Orbit: 424 x 430 km, 87.4° (Epoch: 27 November)

Event Time Altitude Azimuth Distance (km) Brightness Sun altitude
Rises 18:24:42 0° 181° (S) 2,392 8.0 -17.5°
Reaches altitude 10° 18:26:43 10° 181° (S) 1,531 7.0 -17.8°
Maximum altitude 18:30:02 90° 189° (S) 439 4.1 -18.4°
Drops below altitude 10° 18:33:23 10° 2° (N) 1,546 7.0 -18.9°
Sets 18:35:26 0° 3° (N) 2,419 8.0 -19.2°
